Owen Roberts, Cayman Islands

9:31 AM EST on April 19, 2018 (GMT -0500)
Roberts International

Weather History for MWCR - December, 2012

Change the Weather History Date:

Wednesday, December 12, 2012

  Actual Average Record
Temperature  
Mean Temperature 78 °F -  
Max Temperature 82 °F 81 °F 87 °F (1997)
Min Temperature 74 °F 74 °F 66 °F (2010)
Cooling Degree Days 13    
Growing Degree Days 28 (Base 50)    
Moisture  
Dew Point 75 °F    
Average Humidity 89    
Maximum Humidity 100    
Minimum Humidity 75    
Precipitation  
Precipitation 0.08 in - - ()
Sea Level Pressure  
Sea Level Pressure 30.01 in    
Wind  
Wind Speed 3 mph ()    
Max Wind Speed 8 mph    
Max Gust Speed -    
Visibility 6.0 miles    
Events Rain    
Averages and records for this station are not official NWS values.
T = Trace of Precipitation, MM = Missing Value Source: Averaged Metar Reports

Daily Weather History Graph

Daily Weather History Graph

Search for Another Location

Airport or City:

Astronomy

Dec. 12, 2012 Rise Set
Actual Time 6:49 AM EST 5:49 PM EST
Civil Twilight 6:25 AM EST 6:12 PM EST
Nautical Twilight 5:58 AM EST 6:40 PM EST
Astronomical Twilight 5:31 AM EST 7:07 PM EST
Moon 5:55 AM EST (12/12) 5:22 PM EST (12/12)
Length of Visible Light 11h 46m
Length of Day
10h 59m
Waning Crescent, 1% of the Moon is Illuminated
Dec 12
Waning Crescent
Dec 13
New
Dec 20
First Quarter
Dec 28
Full
Jan 4
Last Quarter

Hourly Weather History & Observations

Time (EST) Temp. Heat Index Dew Point Humidity Pressure Visibility Wind Dir Wind Speed Gust Speed Precip Events Conditions
6:00 AM 75.2 °F - 73.4 °F 94% 29.98 in 6.2 mi Calm Calm - N/A   Partly Cloudy
7:00 AM 76 °F - 75 °F 96% 30.00 in 6 mi Calm Calm - -   Scattered Clouds
7:00 AM 75.2 °F - 75.2 °F 100% 29.98 in 6.2 mi Calm Calm - N/A   Partly Cloudy
8:00 AM 80.6 °F 87.1 °F 77.0 °F 89% 30.04 in 6.2 mi NE 5.8 mph - N/A   Scattered Clouds
9:00 AM 80.6 °F 87.1 °F 77.0 °F 89% 30.04 in 6.2 mi ENE 8.1 mph - N/A   Mostly Cloudy
10:00 AM 75.2 °F - 73.4 °F 94% 30.06 in 3.7 mi SE 6.9 mph - N/A Rain Light Rain Showers
11:00 AM 75.2 °F - 73.4 °F 94% 30.06 in 6.2 mi Calm Calm - N/A   Mostly Cloudy
12:00 PM 80.6 °F 86.2 °F 75.2 °F 84% 30.04 in 6.2 mi East 4.6 mph - N/A   Mostly Cloudy
1:00 PM 80 °F - 73 °F 75% 30.03 in 6 mi ENE 4.6 mph - -   Partly Cloudy
1:00 PM 80.6 °F 85.4 °F 73.4 °F 79% 30.01 in 6.2 mi ENE 4.6 mph - N/A   Mostly Cloudy
2:00 PM 80.6 °F 86.2 °F 75.2 °F 84% 30.01 in 6.2 mi NE 6.9 mph - N/A   Mostly Cloudy
3:00 PM 82.4 °F 89.5 °F 75.2 °F 79% 29.98 in 6.2 mi NE 5.8 mph - N/A   Mostly Cloudy
4:00 PM 82.4 °F 90.9 °F 77.0 °F 84% 29.98 in 6.2 mi East 5.8 mph - N/A   Scattered Clouds
5:00 PM 80.6 °F 86.2 °F 75.2 °F 84% 29.98 in 6.2 mi NNE 6.9 mph - N/A   Scattered Clouds
6:00 PM 80.6 °F 86.2 °F 75.2 °F 84% 29.98 in 6.2 mi NE 8.1 mph - N/A   Partly Cloudy
7:00 PM 78.8 °F - 77.0 °F 94% 29.98 in 6.2 mi ENE 5.8 mph - N/A   Partly Cloudy
8:00 PM 78.8 °F - 77.0 °F 94% 30.01 in 6.2 mi ENE 8.1 mph - N/A   Partly Cloudy
9:00 PM 78.8 °F - 77.0 °F 94% 30.04 in 6.2 mi NE 8.1 mph - N/A   Partly Cloudy
10:00 PM 78.8 °F - 77.0 °F 94% 30.04 in 6.2 mi NE 6.9 mph - N/A   Partly Cloudy